Location: B�rgermoos
(47.6500°N, 9.0667°E)
Time: 04:46:36
(UTC+00:00)

KORONAS-FOTON - Pass Details

Date: 18 September 2020
Orbit: 506 x 531 km, 82.4° (Epoch: 22 October)

Event Time Altitude Azimuth Distance (km) Brightness Sun altitude
Rises 19:20:07 0° 352° (N) 2,688 7.9 -18.9°
Reaches altitude 10° 19:22:17 10° 355° (N) 1,794 6.9 -19.3°
Maximum altitude 19:26:13 67° 79° (ENE) 581 3.7 -19.9°
Enters shadow 19:26:42 60° 123° (ESE) 615 3.8 -19.9°
